Zurück zum Katalog

FENGYUN 1C DEB

LostPO
NORAD 36989·DEBRIS·🇨🇳 China

Gestartet May 10, 1999 von Taiyuan Satellite Launch Center

Loading…

Nächste Überflüge (nächste 24 Stunden)

TLE

VeraltetSource: Space-Track

Epoche: Feb 24, 2024, 15:09 UTC

1 36989U 99025EBV 24055.63159469  .00005529  00000-0  39237-2 0  9996
2 36989  98.2256   3.1983 0255484  38.3951 323.5087 13.83507494753838

Verfolge FENGYUN 1C DEB in Echtzeit mit AllMySat

Download on the App Store